Regional Weather Roundup
Issued by NWS Newport/Morehead, NC

Current Version | Previous Version | Graphics & Text | Print | Product List | Glossary On
Versions: 1 2 3 4 5 6 7 8 9 10 11 12 13 14 15 16 17 18 19 20 21 22 23 24 25 26 27 28 29 30 31 32 33 34 35 36 37 38 39 40 41 42 43 44 45 46 47 48 49 50
000 ASUS42 KMHX 251213 RWRMHX WEATHER ROUNDUP FOR EASTERN NORTH CAROLINA NATIONAL WEATHER SERVICE NEWPORT/MOREHEAD CITY NC 800 AM EDT WED MAY 25 2016 NOTE: "FAIR" INDICATES FEW OR NO CLOUDS BELOW 12,000 FEET WITH NO SIGNIFICANT WEATHER AND/OR OBSTRUCTIONS TO VISIBILITY NCZ015>017-031-032-045>047-102-103-251300- NORTH COAST CITY SKY/WX TMP DP RH WIND PRES REMARKS EDENTON SUNNY N/A N/A N/A W5 30.21R ELIZABETH CITY SUNNY 68 59 73 W9 30.19R KITTY HAWK SUNNY 70 60 71 CALM 30.18R MANTEO SUNNY 69 61 75 W5 30.20R $$ NCZ045>047-081-094-103-104-251300- CENTRAL COAST CITY SKY/WX TMP DP RH WIND PRES REMARKS FRISCO SUNNY 71 62 73 W8 30.21R $$ NCZ095-097-098-100-101-251300- SOUTHERN COAST CITY SKY/WX TMP DP RH WIND PRES REMARKS BEAUFORT SUNNY 70 60 70 W7 30.22S CEDAR ISLAND NOT AVBL JACKSONVILLE SUNNY 67 60 78 W6 30.22R PINEY ISLAND SUNNY N/A N/A N/A W10 30.21S WILMINGTON SUNNY 69 62 78 SW5 30.23R $$ NCZ011>013-027>030-043-044-078>080-089-090>093-098-251300- COASTAL PLAIN CITY SKY/WX TMP DP RH WIND PRES REMARKS AHOSKIE SUNNY 64 59 82 CALM 30.20R CLINTON SUNNY 65 62 90 SW3 30.23R ELIZABETHTOWN SUNNY 67 61 81 SW3 30.22R GOLDSBORO SUNNY 67 67 100 W8 30.21R GREENVILLE SUNNY 68 61 77 W7 30.22R HAVELOCK SUNNY 69 61 75 W9 30.23R KENANSVILLE SUNNY 65 60 82 SW5 30.24R KINSTON SUNNY 66 61 82 SW7 30.23R NEW BERN SUNNY 68 60 75 W7 30.23R RICHLANDS SUNNY 67 62 84 SW5 30.23R ROCKY MOUNT SUNNY 66 61 84 SW5 30.22R WASHINGTON SUNNY 66 60 80 SW8 30.21R WHITEVILLE SUNNY 67 62 83 SW5 30.23R $$ AMZ130-135-150-152-154-156-158-170-250-252-270-ANZ085-086-088-633-658-670-251300- MARINE OBSERVATIONS STATION/POSITION TIME TEMP WIND PRES WAVE SWELL AIR SEA DIR/SP/G HT/PER HT/PER (UTC) (F) (DEG/KT/KT) (MB) (FT/S) (FT/S) CHESAPEAKE LIGHT 1100 66 240/ 14/ 14 1021.4 64 E VA BEACH 1150 61 56 250/ 8/ 8 1021.2 3/ 9 2/ 9 DUCK 1100 68 61 250/ 10/ 12 1021.0 2 E DUCK 1111 62 N/A 2/ 9 OREGON INLET 1100 67 69 250/ 8/ 10 1021.9 13E OREGON INLT 1200 63 N/A 3/ 5 3/ 5 HATTERAS CG 1100 69 68 260/ 8/ 10 1022.1 DIAMOND BUOY 1150 68 67 270/ 8/ 8 1023.1 3/ 5 3/ 5 CAPE LOOKOUT 1200 71 270/ 6/ 8 1023.2 BEAUFORT LAB 1100 68 68 300/ 3/ 7 1022.4 30 SE NEW RVR IN 1125 73 N/A 3/ 7 27 SE WRIGHTSVLE 1108 73 72 290/ 8/ 10 1022.9 5 SE WRIGHTSVLE 1108 70 71 280/ 6/ 8 1023.8 225 S CAPE HAT 1150 74 78 40/ 8/ 10 1023.8 4/ 8 3/ 8 41 SE CHARLESTON 1150 76 75 240/ 2/ 2 1023.7 2/ 9 2/ 9 $$

USA.gov is the U.S. government's official web portal to all federal, state and local government web resources and services.